Year,Month,Day,Hour,Minute,Value (Times are PST for windgust in km/hr)
2017,11,14,00,00,8.10
2017,11,14,00,01,4.80
2017,11,14,00,02,6.40
2017,11,14,00,03,4.80
2017,11,14,00,04,6.40
2017,11,14,00,05,6.40
2017,11,14,00,06,6.40
2017,11,14,00,07,4.80
2017,11,14,00,08,8.10
2017,11,14,00,09,4.80
2017,11,14,00,10,3.20
2017,11,14,00,11,6.40
2017,11,14,00,12,8.10
2017,11,14,00,13,4.80
2017,11,14,00,14,6.40
2017,11,14,00,15,6.40
2017,11,14,00,16,8.10
2017,11,14,00,17,6.40
2017,11,14,00,18,4.80
2017,11,14,00,19,9.60
2017,11,14,00,20,8.10
2017,11,14,00,21,6.40
2017,11,14,00,22,6.40
2017,11,14,00,23,3.20
2017,11,14,00,24,4.80
2017,11,14,00,25,4.80
2017,11,14,00,26,6.40
2017,11,14,00,27,6.40
2017,11,14,00,28,9.60
2017,11,14,00,29,6.40
2017,11,14,00,30,6.40
2017,11,14,00,31,8.10
2017,11,14,00,32,6.40
2017,11,14,00,33,8.10
2017,11,14,00,34,11.30
2017,11,14,00,35,9.60
2017,11,14,00,36,4.80
2017,11,14,00,37,6.40
2017,11,14,00,38,4.80
2017,11,14,00,39,8.10
2017,11,14,00,40,8.10
2017,11,14,00,41,9.60
2017,11,14,00,42,8.10
2017,11,14,00,43,8.10
2017,11,14,00,44,6.40
2017,11,14,00,45,8.10
2017,11,14,00,46,9.60
2017,11,14,00,47,9.60
2017,11,14,00,48,6.40
2017,11,14,00,49,8.10
2017,11,14,00,50,8.10
2017,11,14,00,51,12.90
2017,11,14,00,52,14.50
2017,11,14,00,53,14.50
2017,11,14,00,54,19.30
2017,11,14,00,55,11.30
2017,11,14,00,56,14.50
2017,11,14,00,57,14.50
2017,11,14,00,58,11.30
2017,11,14,00,59,11.30
2017,11,14,01,00,11.30
2017,11,14,01,01,8.10
2017,11,14,01,02,12.90
2017,11,14,01,03,12.90
2017,11,14,01,04,16.10
2017,11,14,01,05,4.80
2017,11,14,01,06,9.60
2017,11,14,01,07,6.40
2017,11,14,01,08,8.10
2017,11,14,01,09,6.40
2017,11,14,01,10,14.50
2017,11,14,01,11,6.40
2017,11,14,01,12,8.10
2017,11,14,01,13,9.60
2017,11,14,01,14,8.10
2017,11,14,01,15,8.10
2017,11,14,01,16,8.10
2017,11,14,01,17,8.10
2017,11,14,01,18,3.20
2017,11,14,01,19,3.20
2017,11,14,01,20,4.80
2017,11,14,01,21,4.80
2017,11,14,01,22,4.80
2017,11,14,01,23,3.20
2017,11,14,01,24,3.20
2017,11,14,01,25,4.80
2017,11,14,01,26,11.30
2017,11,14,01,27,8.10
2017,11,14,01,28,8.10
2017,11,14,01,29,11.30
2017,11,14,01,30,6.40
2017,11,14,01,31,4.80
2017,11,14,01,32,9.60
2017,11,14,01,33,9.60
2017,11,14,01,34,4.80
2017,11,14,01,35,6.40
2017,11,14,01,36,6.40
2017,11,14,01,37,6.40
2017,11,14,01,38,8.10
2017,11,14,01,39,8.10
2017,11,14,01,40,4.80
2017,11,14,01,41,4.80
2017,11,14,01,42,8.10
2017,11,14,01,43,6.40
2017,11,14,01,44,4.80
2017,11,14,01,45,3.20
2017,11,14,01,46,4.80
2017,11,14,01,47,4.80
2017,11,14,01,48,3.20
2017,11,14,01,50,1.60
2017,11,14,01,51,4.80
2017,11,14,01,52,1.60
2017,11,14,01,53,3.20
2017,11,14,01,54,4.80
2017,11,14,01,55,6.40
2017,11,14,01,56,3.20
2017,11,14,01,57,1.60
2017,11,14,01,58,1.60
2017,11,14,01,59,3.20
2017,11,14,02,00,8.10
2017,11,14,02,01,8.10
2017,11,14,02,02,8.10
2017,11,14,02,03,8.10
2017,11,14,02,04,9.60
2017,11,14,02,05,6.40
2017,11,14,02,06,6.40
2017,11,14,02,07,8.10
2017,11,14,02,08,8.10
2017,11,14,02,09,4.80
2017,11,14,02,10,8.10
2017,11,14,02,11,4.80
2017,11,14,02,12,8.10
2017,11,14,02,13,9.60
2017,11,14,02,14,12.90
2017,11,14,02,15,11.30
2017,11,14,02,16,14.50
2017,11,14,02,17,14.50
2017,11,14,02,18,14.50
2017,11,14,02,19,11.30
2017,11,14,02,20,9.60
2017,11,14,02,21,9.60
2017,11,14,02,22,9.60
2017,11,14,02,23,12.90
2017,11,14,02,24,11.30
2017,11,14,02,25,11.30
2017,11,14,02,26,8.10
2017,11,14,02,27,8.10
2017,11,14,02,28,8.10
2017,11,14,02,29,8.10
2017,11,14,02,30,14.50
2017,11,14,02,31,11.30
2017,11,14,02,32,9.60
2017,11,14,02,33,6.40
2017,11,14,02,34,8.10
2017,11,14,02,35,9.60
2017,11,14,02,36,14.50
2017,11,14,02,37,11.30
2017,11,14,02,38,11.30
2017,11,14,02,39,11.30
2017,11,14,02,40,9.60
2017,11,14,02,41,9.60
2017,11,14,02,42,9.60
2017,11,14,02,43,11.30
2017,11,14,02,44,9.60
2017,11,14,02,45,11.30
2017,11,14,02,46,12.90
2017,11,14,02,47,9.60
2017,11,14,02,48,9.60
2017,11,14,02,49,8.10
2017,11,14,02,50,8.10
2017,11,14,02,51,11.30
2017,11,14,02,52,9.60
2017,11,14,02,53,8.10
2017,11,14,02,54,4.80
2017,11,14,02,55,4.80
2017,11,14,02,56,8.10
2017,11,14,02,57,6.40
2017,11,14,02,58,4.80
2017,11,14,02,59,8.10
2017,11,14,03,00,8.10
2017,11,14,03,01,9.60
2017,11,14,03,02,11.30
2017,11,14,03,03,6.40
2017,11,14,03,04,8.10
2017,11,14,03,05,12.90
2017,11,14,03,06,14.50
2017,11,14,03,07,9.60
2017,11,14,03,08,8.10
2017,11,14,03,09,8.10
2017,11,14,03,10,9.60
2017,11,14,03,11,4.80
2017,11,14,03,12,8.10
2017,11,14,03,13,12.90
2017,11,14,03,14,6.40
2017,11,14,03,15,6.40
2017,11,14,03,16,8.10
2017,11,14,03,17,4.80
2017,11,14,03,18,6.40
2017,11,14,03,19,11.30
2017,11,14,03,20,8.10
2017,11,14,03,21,6.40
2017,11,14,03,22,8.10
2017,11,14,03,23,6.40
2017,11,14,03,24,11.30
2017,11,14,03,25,9.60
2017,11,14,03,26,8.10
2017,11,14,03,27,6.40
2017,11,14,03,28,12.90
2017,11,14,03,29,8.10
2017,11,14,03,30,8.10
2017,11,14,03,31,9.60
2017,11,14,03,32,8.10
2017,11,14,03,33,11.30
2017,11,14,03,34,11.30
2017,11,14,03,35,12.90
2017,11,14,03,36,11.30
2017,11,14,03,37,16.10
2017,11,14,03,38,14.50
2017,11,14,03,39,14.50
2017,11,14,03,40,14.50
2017,11,14,03,41,12.90
2017,11,14,03,42,12.90
2017,11,14,03,43,11.30
2017,11,14,03,44,11.30
2017,11,14,03,45,9.60
2017,11,14,03,46,11.30
2017,11,14,03,47,11.30
2017,11,14,03,48,11.30
2017,11,14,03,49,9.60
2017,11,14,03,50,12.90
2017,11,14,03,51,11.30
2017,11,14,03,52,12.90
2017,11,14,03,53,14.50
2017,11,14,03,54,12.90
2017,11,14,03,55,12.90
2017,11,14,03,56,12.90
2017,11,14,03,57,11.30
2017,11,14,03,58,9.60
2017,11,14,03,59,12.90
2017,11,14,04,00,14.50
2017,11,14,04,01,11.30
2017,11,14,04,02,11.30
2017,11,14,04,03,16.10
2017,11,14,04,04,12.90
2017,11,14,04,05,12.90
2017,11,14,04,06,14.50
2017,11,14,04,07,11.30
2017,11,14,04,08,12.90
2017,11,14,04,09,14.50
2017,11,14,04,10,14.50
2017,11,14,04,11,14.50
2017,11,14,04,12,16.10
2017,11,14,04,13,12.90
2017,11,14,04,14,27.40
2017,11,14,04,15,20.90
2017,11,14,04,16,17.70
2017,11,14,04,17,14.50
2017,11,14,04,18,24.20
2017,11,14,04,19,20.90
2017,11,14,04,20,22.50
2017,11,14,04,21,25.70
2017,11,14,04,22,20.90
2017,11,14,04,23,22.50
2017,11,14,04,24,25.70
2017,11,14,04,25,16.10
2017,11,14,04,26,17.70
2017,11,14,04,27,20.90
2017,11,14,04,28,20.90
2017,11,14,04,29,16.10
2017,11,14,04,30,14.50
2017,11,14,04,31,11.30
2017,11,14,04,32,11.30
2017,11,14,04,33,17.70
2017,11,14,04,34,19.30
2017,11,14,04,35,16.10
2017,11,14,04,36,17.70
2017,11,14,04,37,16.10
2017,11,14,04,38,16.10
2017,11,14,04,39,17.70
2017,11,14,04,40,12.90
2017,11,14,04,41,17.70
2017,11,14,04,42,22.50
2017,11,14,04,43,17.70
2017,11,14,04,44,16.10
2017,11,14,04,45,20.90
2017,11,14,04,46,17.70
2017,11,14,04,47,22.50
2017,11,14,04,48,17.70
2017,11,14,04,49,20.90
2017,11,14,04,50,16.10
2017,11,14,04,51,16.10
2017,11,14,04,52,19.30
2017,11,14,04,53,16.10
2017,11,14,04,54,12.90
2017,11,14,04,55,16.10
2017,11,14,04,56,20.90
2017,11,14,04,57,16.10
2017,11,14,04,58,22.50
2017,11,14,04,59,24.20
2017,11,14,05,00,25.70
2017,11,14,05,01,32.20
2017,11,14,05,02,20.90
2017,11,14,05,03,20.90
2017,11,14,05,04,20.90
2017,11,14,05,05,20.90
2017,11,14,05,06,22.50
2017,11,14,05,07,22.50
2017,11,14,05,08,12.90
2017,11,14,05,09,16.10
2017,11,14,05,10,17.70
2017,11,14,05,11,16.10
2017,11,14,05,12,14.50
2017,11,14,05,13,22.50
2017,11,14,05,14,20.90
2017,11,14,05,15,24.20
2017,11,14,05,16,20.90
2017,11,14,05,17,19.30
2017,11,14,05,18,20.90
2017,11,14,05,19,19.30
2017,11,14,05,20,19.30
2017,11,14,05,21,20.90
2017,11,14,05,22,27.40
2017,11,14,05,23,27.40
2017,11,14,05,24,27.40
2017,11,14,05,25,20.90
2017,11,14,05,26,22.50
2017,11,14,05,27,20.90
2017,11,14,05,28,24.20
2017,11,14,05,29,16.10
2017,11,14,05,30,17.70
2017,11,14,05,31,17.70
2017,11,14,05,32,19.30
2017,11,14,05,33,12.90
2017,11,14,05,34,25.70
2017,11,14,05,35,16.10
2017,11,14,05,36,20.90
2017,11,14,05,37,14.50
2017,11,14,05,38,22.50
2017,11,14,05,39,25.70
2017,11,14,05,40,27.40
2017,11,14,05,41,20.90
2017,11,14,05,42,14.50
2017,11,14,05,43,17.70
2017,11,14,05,44,16.10
2017,11,14,05,45,19.30
2017,11,14,05,46,25.70
2017,11,14,05,47,22.50
2017,11,14,05,48,20.90
2017,11,14,05,49,20.90
2017,11,14,05,50,25.70
2017,11,14,05,51,27.40
2017,11,14,05,52,29.00
2017,11,14,05,53,12.90
2017,11,14,05,54,22.50
2017,11,14,05,55,27.40
2017,11,14,05,56,16.10
2017,11,14,05,57,22.50
2017,11,14,05,58,20.90
2017,11,14,05,59,20.90
2017,11,14,06,00,19.30
2017,11,14,06,01,12.90
2017,11,14,06,02,12.90
2017,11,14,06,03,8.10
2017,11,14,06,04,9.60
2017,11,14,06,05,30.60
2017,11,14,06,06,20.90
2017,11,14,06,07,17.70
2017,11,14,06,08,16.10
2017,11,14,06,09,14.50
2017,11,14,06,10,14.50
2017,11,14,06,11,16.10
2017,11,14,06,12,16.10
2017,11,14,06,13,14.50
2017,11,14,06,14,17.70
2017,11,14,06,15,17.70
2017,11,14,06,16,16.10
2017,11,14,06,17,12.90
2017,11,14,06,18,12.90
2017,11,14,06,19,16.10
2017,11,14,06,20,17.70
2017,11,14,06,21,14.50
2017,11,14,06,22,9.60
2017,11,14,06,23,17.70
2017,11,14,06,24,17.70
2017,11,14,06,25,20.90
2017,11,14,06,26,17.70
2017,11,14,06,27,19.30
2017,11,14,06,28,24.20
2017,11,14,06,29,25.70
2017,11,14,06,30,25.70
2017,11,14,06,31,22.50
2017,11,14,06,32,19.30
2017,11,14,06,33,16.10
2017,11,14,06,34,12.90
2017,11,14,06,35,16.10
2017,11,14,06,36,16.10
2017,11,14,06,37,16.10
2017,11,14,06,38,17.70
2017,11,14,06,39,17.70
2017,11,14,06,40,16.10
2017,11,14,06,41,12.90
2017,11,14,06,42,16.10
2017,11,14,06,43,17.70
2017,11,14,06,44,16.10
2017,11,14,06,45,20.90
2017,11,14,06,46,17.70
2017,11,14,06,47,17.70
2017,11,14,06,48,16.10
2017,11,14,06,49,29.00
2017,11,14,06,50,17.70
2017,11,14,06,51,22.50
2017,11,14,06,52,14.50
2017,11,14,06,53,20.90
2017,11,14,06,54,25.70
2017,11,14,06,55,20.90
2017,11,14,06,56,17.70
2017,11,14,06,57,17.70
2017,11,14,06,58,24.20
2017,11,14,06,59,19.30
2017,11,14,07,00,17.70
2017,11,14,07,01,24.20
2017,11,14,07,02,17.70
2017,11,14,07,03,17.70
2017,11,14,07,04,20.90
2017,11,14,07,05,19.30
2017,11,14,07,06,24.20
2017,11,14,07,07,20.90
2017,11,14,07,08,24.20
2017,11,14,07,09,33.80
2017,11,14,07,10,22.50
2017,11,14,07,11,25.70
2017,11,14,07,12,30.60
2017,11,14,07,13,25.70
2017,11,14,07,14,27.40
2017,11,14,07,15,30.60
2017,11,14,07,16,24.20
2017,11,14,07,17,25.70
2017,11,14,07,18,30.60
2017,11,14,07,19,24.20
2017,11,14,07,20,22.50
2017,11,14,07,21,30.60
2017,11,14,07,22,32.20
2017,11,14,07,23,30.60
2017,11,14,07,24,20.90
2017,11,14,07,25,17.70
2017,11,14,07,26,16.10
2017,11,14,07,27,24.20
2017,11,14,07,28,16.10
2017,11,14,07,29,22.50
2017,11,14,07,30,20.90
2017,11,14,07,31,24.20
2017,11,14,07,32,17.70
2017,11,14,07,33,14.50
2017,11,14,07,34,16.10
2017,11,14,07,35,16.10
2017,11,14,07,36,16.10
2017,11,14,07,37,16.10
2017,11,14,07,38,16.10
2017,11,14,07,39,17.70
2017,11,14,07,40,14.50
2017,11,14,07,41,17.70
2017,11,14,07,42,17.70
2017,11,14,07,43,20.90
2017,11,14,07,44,11.30
2017,11,14,07,45,20.90
2017,11,14,07,46,22.50
2017,11,14,07,47,17.70
2017,11,14,07,48,24.20
2017,11,14,07,49,24.20
2017,11,14,07,50,17.70
2017,11,14,07,51,20.90
2017,11,14,07,52,16.10
2017,11,14,07,53,30.60
2017,11,14,07,54,27.40
2017,11,14,07,55,29.00
2017,11,14,07,56,24.20
2017,11,14,07,57,29.00
2017,11,14,07,58,17.70
2017,11,14,07,59,24.20
2017,11,14,08,00,22.50
2017,11,14,08,01,25.70
2017,11,14,08,02,17.70
2017,11,14,08,03,20.90
2017,11,14,08,04,25.70
2017,11,14,08,05,29.00
2017,11,14,08,06,25.70
2017,11,14,08,07,27.40
2017,11,14,08,08,27.40
2017,11,14,08,09,29.00
2017,11,14,08,10,25.70
2017,11,14,08,11,27.40
2017,11,14,08,12,25.70
2017,11,14,08,13,27.40
2017,11,14,08,14,22.50
2017,11,14,08,15,24.20
2017,11,14,08,16,32.20
2017,11,14,08,17,37.00
2017,11,14,08,18,22.50
2017,11,14,08,19,37.00
2017,11,14,08,20,35.40
2017,11,14,08,21,25.70
2017,11,14,08,22,22.50
2017,11,14,08,23,38.60
2017,11,14,08,24,41.80
2017,11,14,08,25,29.00
2017,11,14,08,26,24.20
2017,11,14,08,27,25.70
2017,11,14,08,28,12.90
2017,11,14,08,29,20.90
2017,11,14,08,30,27.40
2017,11,14,08,31,25.70
2017,11,14,08,32,35.40
2017,11,14,08,33,32.20
2017,11,14,08,34,35.40
2017,11,14,08,35,30.60
2017,11,14,08,36,29.00
2017,11,14,08,37,29.00
2017,11,14,08,38,27.40
2017,11,14,08,39,29.00
2017,11,14,08,40,40.20
2017,11,14,08,41,35.40
2017,11,14,08,42,25.70
2017,11,14,08,43,30.60
2017,11,14,08,44,38.60
2017,11,14,08,45,33.80
2017,11,14,08,46,33.80
2017,11,14,08,47,38.60
2017,11,14,08,48,32.20
2017,11,14,08,49,22.50
2017,11,14,08,50,35.40
2017,11,14,08,51,22.50
2017,11,14,08,52,25.70
2017,11,14,08,53,24.20
2017,11,14,08,54,25.70
2017,11,14,08,55,22.50
2017,11,14,08,56,29.00
2017,11,14,08,57,32.20
2017,11,14,08,58,24.20
2017,11,14,08,59,24.20
2017,11,14,09,00,27.40
2017,11,14,09,01,30.60
2017,11,14,09,02,22.50
2017,11,14,09,03,20.90
2017,11,14,09,04,14.50
2017,11,14,09,05,16.10
2017,11,14,09,06,22.50
2017,11,14,09,07,22.50
2017,11,14,09,08,25.70
2017,11,14,09,09,19.30
2017,11,14,09,10,12.90
2017,11,14,09,11,16.10
2017,11,14,09,12,20.90
2017,11,14,09,13,22.50
2017,11,14,09,14,24.20
2017,11,14,09,15,22.50
2017,11,14,09,16,17.70
2017,11,14,09,17,17.70
2017,11,14,09,18,16.10
2017,11,14,09,19,19.30
2017,11,14,09,20,20.90
2017,11,14,09,21,24.20
2017,11,14,09,22,19.30
2017,11,14,09,23,17.70
2017,11,14,09,24,14.50
2017,11,14,09,25,14.50
2017,11,14,09,26,17.70
2017,11,14,09,27,20.90
2017,11,14,09,28,14.50
2017,11,14,09,29,25.70
2017,11,14,09,30,25.70
2017,11,14,09,31,16.10
2017,11,14,09,32,12.90
2017,11,14,09,33,12.90
2017,11,14,09,34,22.50
2017,11,14,09,35,11.30
2017,11,14,09,36,19.30
2017,11,14,09,37,19.30
2017,11,14,09,38,24.20
2017,11,14,09,39,14.50
2017,11,14,09,40,16.10
2017,11,14,09,41,14.50
2017,11,14,09,42,17.70
2017,11,14,09,43,20.90
2017,11,14,09,44,20.90
2017,11,14,09,45,25.70
2017,11,14,09,46,14.50
2017,11,14,09,47,22.50
2017,11,14,09,48,17.70
2017,11,14,09,49,24.20
2017,11,14,09,50,17.70
2017,11,14,09,51,20.90
2017,11,14,09,52,32.20
2017,11,14,09,53,25.70
2017,11,14,09,54,17.70
2017,11,14,09,55,24.20
2017,11,14,09,56,25.70
2017,11,14,09,57,19.30
2017,11,14,09,58,24.20
2017,11,14,09,59,25.70
2017,11,14,10,00,16.10
2017,11,14,10,01,20.90
2017,11,14,10,02,24.20
2017,11,14,10,03,20.90
2017,11,14,10,04,19.30
2017,11,14,10,05,16.10
2017,11,14,10,06,22.50
2017,11,14,10,07,17.70
2017,11,14,10,08,25.70
2017,11,14,10,09,29.00
2017,11,14,10,10,14.50
2017,11,14,10,11,22.50
2017,11,14,10,12,27.40
2017,11,14,10,13,27.40
2017,11,14,10,14,29.00
2017,11,14,10,15,27.40
2017,11,14,10,16,20.90
2017,11,14,10,17,30.60
2017,11,14,10,18,25.70
2017,11,14,10,19,24.20
2017,11,14,10,20,24.20
2017,11,14,10,21,20.90
2017,11,14,10,22,25.70
2017,11,14,10,23,40.20
2017,11,14,10,24,27.40
2017,11,14,10,25,33.80
2017,11,14,10,26,29.00
2017,11,14,10,27,37.00
2017,11,14,10,28,25.70
2017,11,14,10,29,20.90
2017,11,14,10,30,32.20
2017,11,14,10,31,33.80
2017,11,14,10,32,25.70
2017,11,14,10,33,22.50
2017,11,14,10,34,19.30
2017,11,14,10,35,20.90
2017,11,14,10,36,25.70
2017,11,14,10,37,24.20
2017,11,14,10,38,29.00
2017,11,14,10,39,20.90
2017,11,14,10,40,25.70
2017,11,14,10,41,27.40
2017,11,14,10,42,33.80
2017,11,14,10,43,29.00
2017,11,14,10,44,22.50
2017,11,14,10,45,24.20
2017,11,14,10,46,25.70
2017,11,14,10,47,29.00
2017,11,14,10,48,24.20
2017,11,14,10,49,35.40
2017,11,14,10,50,24.20
2017,11,14,10,51,22.50
2017,11,14,10,52,17.70
2017,11,14,10,53,19.30
2017,11,14,10,54,24.20
2017,11,14,10,55,24.20
2017,11,14,10,56,17.70
2017,11,14,10,57,24.20
2017,11,14,10,58,24.20
2017,11,14,10,59,24.20
2017,11,14,11,00,19.30
2017,11,14,11,01,33.80
2017,11,14,11,02,29.00
2017,11,14,11,03,35.40
2017,11,14,11,04,38.60
2017,11,14,11,05,37.00
2017,11,14,11,06,27.40
2017,11,14,11,07,35.40
2017,11,14,11,08,33.80
2017,11,14,11,09,17.70
2017,11,14,11,10,33.80
2017,11,14,11,11,25.70
2017,11,14,11,12,29.00
2017,11,14,11,13,24.20
2017,11,14,11,14,25.70
2017,11,14,11,15,25.70
2017,11,14,11,16,27.40
2017,11,14,11,17,33.80
2017,11,14,11,18,25.70
2017,11,14,11,19,24.20
2017,11,14,11,20,20.90
2017,11,14,11,21,25.70
2017,11,14,11,22,17.70
2017,11,14,11,23,19.30
2017,11,14,11,24,17.70
2017,11,14,11,25,17.70
2017,11,14,11,26,16.10
2017,11,14,11,27,22.50
2017,11,14,11,28,19.30
2017,11,14,11,29,17.70
2017,11,14,11,30,17.70
2017,11,14,11,31,17.70
2017,11,14,11,32,16.10
2017,11,14,11,33,20.90
2017,11,14,11,34,17.70
2017,11,14,11,35,16.10
2017,11,14,11,36,22.50
2017,11,14,11,37,22.50
2017,11,14,11,38,27.40
2017,11,14,11,39,22.50
2017,11,14,11,40,25.70
2017,11,14,11,41,17.70
2017,11,14,11,42,25.70
2017,11,14,11,43,19.30
2017,11,14,11,44,19.30
2017,11,14,11,45,19.30
2017,11,14,11,46,20.90
2017,11,14,11,47,17.70
2017,11,14,11,48,17.70
2017,11,14,11,49,19.30
2017,11,14,11,50,12.90
2017,11,14,11,51,16.10
2017,11,14,11,52,16.10
2017,11,14,11,53,12.90
2017,11,14,11,54,16.10
2017,11,14,11,55,14.50
2017,11,14,11,56,19.30
2017,11,14,11,57,20.90
2017,11,14,11,58,17.70
2017,11,14,11,59,14.50
2017,11,14,12,00,17.70
2017,11,14,12,01,20.90
2017,11,14,12,02,16.10
2017,11,14,12,03,14.50
2017,11,14,12,04,24.20
2017,11,14,12,05,22.50
2017,11,14,12,06,27.40
2017,11,14,12,07,27.40
2017,11,14,12,08,24.20
2017,11,14,12,09,20.90
2017,11,14,12,10,19.30
2017,11,14,12,11,19.30
2017,11,14,12,12,24.20
2017,11,14,12,13,25.70
2017,11,14,12,14,20.90
2017,11,14,12,15,17.70
2017,11,14,12,16,20.90
2017,11,14,12,17,22.50
2017,11,14,12,18,27.40
2017,11,14,12,19,12.90
2017,11,14,12,20,22.50
2017,11,14,12,21,19.30
2017,11,14,12,22,17.70
2017,11,14,12,23,16.10
2017,11,14,12,24,12.90
2017,11,14,12,25,17.70
2017,11,14,12,26,14.50
2017,11,14,12,27,11.30
2017,11,14,12,28,19.30
2017,11,14,12,29,16.10
2017,11,14,12,30,12.90
2017,11,14,12,31,11.30
2017,11,14,12,32,16.10
2017,11,14,12,33,16.10
2017,11,14,12,34,17.70
2017,11,14,12,35,12.90
2017,11,14,12,36,11.30
2017,11,14,12,37,19.30
2017,11,14,12,38,24.20
2017,11,14,12,39,22.50
2017,11,14,12,40,20.90
2017,11,14,12,41,16.10
2017,11,14,12,42,22.50
2017,11,14,12,43,30.60
2017,11,14,12,44,30.60
2017,11,14,12,45,32.20
2017,11,14,12,46,24.20
2017,11,14,12,47,20.90
2017,11,14,12,48,25.70
2017,11,14,12,49,33.80
2017,11,14,12,50,35.40
2017,11,14,12,51,29.00
2017,11,14,12,52,20.90
2017,11,14,12,53,14.50
2017,11,14,12,54,24.20
2017,11,14,12,55,14.50
2017,11,14,12,56,25.70
2017,11,14,12,57,24.20
2017,11,14,12,58,16.10
2017,11,14,12,59,17.70
2017,11,14,13,00,19.30
2017,11,14,13,01,20.90
2017,11,14,13,02,20.90
2017,11,14,13,03,24.20
2017,11,14,13,04,14.50
2017,11,14,13,05,19.30
2017,11,14,13,06,19.30
2017,11,14,13,07,25.70
2017,11,14,13,08,30.60
2017,11,14,13,09,35.40
2017,11,14,13,10,30.60
2017,11,14,13,11,24.20
2017,11,14,13,12,22.50
2017,11,14,13,13,22.50
2017,11,14,13,14,22.50
2017,11,14,13,15,27.40
2017,11,14,13,16,24.20
2017,11,14,13,17,25.70
2017,11,14,13,18,24.20
2017,11,14,13,19,19.30
2017,11,14,13,20,22.50
2017,11,14,13,21,20.90
2017,11,14,13,22,20.90
2017,11,14,13,23,24.20
2017,11,14,13,24,24.20
2017,11,14,13,25,35.40
2017,11,14,13,26,27.40
2017,11,14,13,27,22.50
2017,11,14,13,28,27.40
2017,11,14,13,29,30.60
2017,11,14,13,30,24.20
2017,11,14,13,31,17.70
2017,11,14,13,32,25.70
2017,11,14,13,33,24.20
2017,11,14,13,34,30.60
2017,11,14,13,35,24.20
2017,11,14,13,36,25.70
2017,11,14,13,37,27.40
2017,11,14,13,38,33.80
2017,11,14,13,39,25.70
2017,11,14,13,40,27.40
2017,11,14,13,41,22.50
2017,11,14,13,42,22.50
2017,11,14,13,43,29.00
2017,11,14,13,44,20.90
2017,11,14,13,45,27.40
2017,11,14,13,46,45.10
2017,11,14,13,47,35.40
2017,11,14,13,48,32.20
2017,11,14,13,49,27.40
2017,11,14,13,50,24.20
2017,11,14,13,51,16.10
2017,11,14,13,52,32.20
2017,11,14,13,53,19.30
2017,11,14,13,54,20.90
2017,11,14,13,55,20.90
2017,11,14,13,56,27.40
2017,11,14,13,57,38.60
2017,11,14,13,58,20.90
2017,11,14,13,59,27.40
2017,11,14,14,00,24.20
2017,11,14,14,01,27.40
2017,11,14,14,02,19.30
2017,11,14,14,03,25.70
2017,11,14,14,04,29.00
2017,11,14,14,05,27.40
2017,11,14,14,06,14.50
2017,11,14,14,07,25.70
2017,11,14,14,08,22.50
2017,11,14,14,09,24.20
2017,11,14,14,10,22.50
2017,11,14,14,11,19.30
2017,11,14,14,12,14.50
2017,11,14,14,13,17.70
2017,11,14,14,14,17.70
2017,11,14,14,15,22.50
2017,11,14,14,16,17.70
2017,11,14,14,17,11.30
2017,11,14,14,18,19.30
2017,11,14,14,19,22.50
2017,11,14,14,20,16.10
2017,11,14,14,21,19.30
2017,11,14,14,22,27.40
2017,11,14,14,23,25.70
2017,11,14,14,24,24.20
2017,11,14,14,25,30.60
2017,11,14,14,26,24.20
2017,11,14,14,27,25.70
2017,11,14,14,28,19.30
2017,11,14,14,29,24.20
2017,11,14,14,30,19.30
2017,11,14,14,31,14.50
2017,11,14,14,32,17.70
2017,11,14,14,33,17.70
2017,11,14,14,34,20.90
2017,11,14,14,35,17.70
2017,11,14,14,36,24.20
2017,11,14,14,37,27.40
2017,11,14,14,38,20.90
2017,11,14,14,39,12.90
2017,11,14,14,40,14.50
2017,11,14,14,41,12.90
2017,11,14,14,42,12.90
2017,11,14,14,43,22.50
2017,11,14,14,44,20.90
2017,11,14,14,45,20.90
2017,11,14,14,46,17.70
2017,11,14,14,47,20.90
2017,11,14,14,48,20.90
2017,11,14,14,49,25.70
2017,11,14,14,50,22.50
2017,11,14,14,51,17.70
2017,11,14,14,52,16.10
2017,11,14,14,53,22.50
2017,11,14,14,54,20.90
2017,11,14,14,55,12.90
2017,11,14,14,56,22.50
2017,11,14,14,57,16.10
2017,11,14,14,58,27.40
2017,11,14,14,59,22.50
2017,11,14,15,00,14.50
2017,11,14,15,01,12.90
2017,11,14,15,02,12.90
2017,11,14,15,03,16.10
2017,11,14,15,04,22.50
2017,11,14,15,05,20.90
2017,11,14,15,06,20.90
2017,11,14,15,07,16.10
2017,11,14,15,08,20.90
2017,11,14,15,09,16.10
2017,11,14,15,10,20.90
2017,11,14,15,11,25.70
2017,11,14,15,12,17.70
2017,11,14,15,13,20.90
2017,11,14,15,14,19.30
2017,11,14,15,15,12.90
2017,11,14,15,16,11.30
2017,11,14,15,17,9.60
2017,11,14,15,18,14.50
2017,11,14,15,19,20.90
2017,11,14,15,20,12.90
2017,11,14,15,21,12.90
2017,11,14,15,22,12.90
2017,11,14,15,23,19.30
2017,11,14,15,24,20.90
2017,11,14,15,25,29.00
2017,11,14,15,26,22.50
2017,11,14,15,27,30.60
2017,11,14,15,28,20.90
2017,11,14,15,29,20.90
2017,11,14,15,30,24.20
2017,11,14,15,31,35.40
2017,11,14,15,32,24.20
2017,11,14,15,33,22.50
2017,11,14,15,34,11.30
2017,11,14,15,35,11.30
2017,11,14,15,36,16.10
2017,11,14,15,37,27.40
2017,11,14,15,38,19.30
2017,11,14,15,39,17.70
2017,11,14,15,40,24.20
2017,11,14,15,41,25.70
2017,11,14,15,42,24.20
2017,11,14,15,43,35.40
2017,11,14,15,44,29.00
2017,11,14,15,45,29.00
2017,11,14,15,46,40.20
2017,11,14,15,47,29.00
2017,11,14,15,48,17.70
2017,11,14,15,49,22.50
2017,11,14,15,50,19.30
2017,11,14,15,51,20.90
2017,11,14,15,52,25.70
2017,11,14,15,53,24.20
2017,11,14,15,54,24.20
2017,11,14,15,55,24.20
2017,11,14,15,56,35.40
2017,11,14,15,57,43.50
2017,11,14,15,58,35.40
2017,11,14,15,59,33.80
2017,11,14,16,00,22.50
2017,11,14,16,01,20.90
2017,11,14,16,02,32.20
2017,11,14,16,03,37.00
2017,11,14,16,04,32.20
2017,11,14,16,05,29.00
2017,11,14,16,06,25.70
2017,11,14,16,07,20.90
2017,11,14,16,08,19.30
2017,11,14,16,09,22.50
2017,11,14,16,10,25.70
2017,11,14,16,11,35.40
2017,11,14,16,12,29.00
2017,11,14,16,13,35.40
2017,11,14,16,14,27.40
2017,11,14,16,15,24.20
2017,11,14,16,16,30.60
2017,11,14,16,17,29.00
2017,11,14,16,18,22.50
2017,11,14,16,19,25.70
2017,11,14,16,20,27.40
2017,11,14,16,21,30.60
2017,11,14,16,22,33.80
2017,11,14,16,23,27.40
2017,11,14,16,24,22.50
2017,11,14,16,25,19.30
2017,11,14,16,26,19.30
2017,11,14,16,27,24.20
2017,11,14,16,28,20.90
2017,11,14,16,29,29.00
2017,11,14,16,30,25.70
2017,11,14,16,31,29.00
2017,11,14,16,32,37.00
2017,11,14,16,33,27.40
2017,11,14,16,34,17.70
2017,11,14,16,35,17.70
2017,11,14,16,36,27.40
2017,11,14,16,37,40.20
2017,11,14,16,38,29.00
2017,11,14,16,39,20.90
2017,11,14,16,40,25.70
2017,11,14,16,41,35.40
2017,11,14,16,42,35.40
2017,11,14,16,43,19.30
2017,11,14,16,44,16.10
2017,11,14,16,45,20.90
2017,11,14,16,46,29.00
2017,11,14,16,47,22.50
2017,11,14,16,48,32.20
2017,11,14,16,49,25.70
2017,11,14,16,50,27.40
2017,11,14,16,51,24.20
2017,11,14,16,52,24.20
2017,11,14,16,53,22.50
2017,11,14,16,54,17.70
2017,11,14,16,55,25.70
2017,11,14,16,56,29.00
2017,11,14,16,57,25.70
2017,11,14,16,58,25.70
2017,11,14,16,59,35.40
2017,11,14,17,00,17.70
2017,11,14,17,01,32.20
2017,11,14,17,02,30.60
2017,11,14,17,03,25.70
2017,11,14,17,04,27.40
2017,11,14,17,05,38.60
2017,11,14,17,06,27.40
2017,11,14,17,07,20.90
2017,11,14,17,08,24.20
2017,11,14,17,09,27.40
2017,11,14,17,10,35.40
2017,11,14,17,11,33.80
2017,11,14,17,12,27.40
2017,11,14,17,13,27.40
2017,11,14,17,14,35.40
2017,11,14,17,15,35.40
2017,11,14,17,16,20.90
2017,11,14,17,17,30.60
2017,11,14,17,18,29.00
2017,11,14,17,19,27.40
2017,11,14,17,20,25.70
2017,11,14,17,21,19.30
2017,11,14,17,22,17.70
2017,11,14,17,23,16.10
2017,11,14,17,24,22.50
2017,11,14,17,25,27.40
2017,11,14,17,26,27.40
2017,11,14,17,27,20.90
2017,11,14,17,28,24.20